[[{"header":{"parameterUnit":"m.s-1","parameterCategory":2,"la1":30.2992,"la2":30.254,"lo1":-89.0895,"lo2":-89.0443,"dy":0.0025,"dx":0.0025,"nx":19,"ny":19,"refTime":"2026-04-05T09:00:00:Z","depth":"0","parameterNumber":2,"parameterNumberName":"U-component_of_CURRENTS"},"data":[0,0,0,0.1438,0.1437,0.1362,0.1362,0.1328,0.1328,0,0,0,0,0,0,0,0,0,0,0,0.1473,0.1472,0.1439,0.1437,0.1362,0.1362,0.1328,0.1328,0,0,0,0,0,0,0,0,0,0,0,0.1473,0.1472,0.1472,0.1437,0.1362,0.1362,0.1328,0.1368,0,0,0,0,0,0,0,0,0,0,0.1433,0.1462,0.1472,0.1472,0.1436,0.1362,0.1362,0.137,0.1366,0.1381,0,0.1376,0,0.1351,0.1328,0.1328,0,0,0,0.1433,0.1465,0.1439,0.1472,0.1435,0.1363,0.1395,0.1367,0.1363,0.1377,0.1375,0.1373,0.135,0.1328,0.1328,0.1342,0.1342,0,0,0.1437,0.1464,0.1442,0.1437,0.1425,0.1397,0.1393,0.1364,0.1369,0.1375,0.1371,0.135,0.1328,0.1328,0.1342,0.1342,0,0,0,0.1452,0.1467,0.144,0.1439,0.142,0.1395,0.139,0.137,0.136,0.1371,0.1349,0.1328,0.1328,0.1341,0.1342,0.1368,0,0,0,0.1454,0.1475,0.1442,0.1458,0.1421,0.1387,0.1397,0.1362,0.1357,0.1349,0.1328,0.1328,0.1341,0.1342,0.1367,0.1367,0,0,0,0.1474,0.1477,0.147,0.1459,0.1426,0.1386,0.1374,0.136,0.1345,0.1328,0.1328,0.1341,0.1341,0.1366,0.1366,0.1386,0,0,0,0.1501,0.1491,0.1471,0.1449,0.1427,0.1389,0.1373,0.1347,0.1334,0.1328,0.1341,0.1342,0.1365,0.1365,0.1385,0.1341,0.1342,0,0,0.1499,0.1492,0.1475,0.1454,0.1418,0.1399,0.1383,0.1359,0.1349,0.1354,0.1353,0.1367,0.1366,0.1385,0.1369,0.137,0,0,0,0.148,0.1466,0.1453,0.1425,0.1401,0.1391,0.1368,0.1373,0.1371,0.1343,0.137,0.1368,0.138,0.1351,0.1352,0.1199,0.1344,0.1344,0.1344,0.1499,0.1469,0.1439,0.1405,0.1398,0.1389,0.139,0.1395,0.1387,0.1398,0.1392,0.1426,0.1396,0.1396,0.124,0.1401,0.1401,0.1401,0.1401,0.1469,0.1432,0.1423,0.1383,0.1388,0.1387,0.1412,0.1419,0.1439,0.1425,0.1436,0.1383,0.1398,0.1231,0.1403,0.1402,0.1402,0.1402,0.1402,0.1458,0.1432,0.1414,0.1373,0.1373,0.1384,0.1404,0.1432,0.1453,0.1464,0.1432,0.143,0.1281,0.1472,0.1473,0.1473,0.1473,0.1473,0.1473,0.1439,0.1417,0.1388,0.1357,0.1346,0.136,0.14,0.1421,0.1445,0.1449,0.1449,0.1266,0.1448,0.1442,0.1474,0.1474,0.1474,0.1474,0.1474,0.1374,0.1392,0.1343,0.1327,0.1298,0.1275,0.1344,0.1376,0.1417,0.1422,0.1241,0.1443,0.1429,0.1427,0.1421,0.1446,0.1446,0.1446,0.1446,0.1347,0.1345,0.1286,0.1253,0.1234,0.123,0.1193,0.1216,0.1196,0.1135,0.1143,0.1091,0.1099,0.1062,0.1069,0.1053,0.0985,0.0984,0.0983,0.13,0.1294,0.124,0.121,0.1186,0.1154,0.1062,0.0983,0.0952,0.0949,0.0938,0.0958,0.0867,0.0892,0.0824,0.0845,0.0818,0,0]},{"header":{"parameterUnit":"m.s-1","parameterCategory":2,"la1":30.2992,"la2":30.254,"lo1":-89.0895,"lo2":-89.0443,"dy":0.0025,"dx":0.0025,"nx":19,"ny":19,"refTime":"2026-04-05T09:00:00:Z","depth":"0","parameterNumber":3,"parameterNumberName":"V-component_of_CURRENTS"},"data":[0,0,0,-0.0081,-0.008,-0.0051,-0.0051,-0.0054,-0.0054,0,0,0,0,0,0,0,0,0,0,0,-0.0097,-0.0096,-0.0081,-0.0079,-0.0051,-0.0051,-0.0054,-0.0054,0,0,0,0,0,0,0,0,0,0,0,-0.0097,-0.0096,-0.0096,-0.0079,-0.0051,-0.0051,-0.0054,-0.007,0,0,0,0,0,0,0,0,0,0,-0.0095,-0.0106,-0.0096,-0.0096,-0.0079,-0.0051,-0.0051,-0.0071,-0.0069,-0.0074,0,-0.0059,0,-0.0047,-0.0054,-0.0054,0,0,0,-0.0097,-0.0108,-0.0086,-0.0096,-0.0078,-0.0051,-0.0069,-0.007,-0.0068,-0.0072,-0.0059,-0.0058,-0.0047,-0.0054,-0.0054,-0.0017,-0.0017,0,0,-0.0098,-0.0108,-0.0087,-0.0085,-0.0058,-0.0069,-0.0067,-0.0069,-0.007,-0.0059,-0.0058,-0.0047,-0.0054,-0.0054,-0.0017,-0.0017,0,0,0,-0.0091,-0.0109,-0.0088,-0.0085,-0.0071,-0.0068,-0.0066,-0.0071,-0.0059,-0.0058,-0.0047,-0.0054,-0.0054,-0.0018,-0.0017,0.0024,0,0,0,-0.0093,-0.0103,-0.0088,-0.0096,-0.007,-0.0066,-0.0068,-0.0059,-0.0059,-0.0047,-0.0054,-0.0054,-0.0018,-0.0018,0.0022,0.0049,0,0,0,-0.01,-0.0105,-0.0094,-0.0096,-0.0074,-0.0065,-0.0055,-0.0059,-0.0051,-0.0054,-0.0054,-0.0018,-0.0018,0.002,0.0046,0.0072,0,0,0,-0.0122,-0.0097,-0.0094,-0.0062,-0.0074,-0.0033,-0.0055,-0.0041,-0.004,-0.0054,-0.0018,-0.0017,0.002,0.0044,0.007,0.0113,0.0126,0,0,-0.01,-0.0095,-0.0073,-0.0069,-0.0019,-0.0039,0.0003,-0.0011,-0.003,-0.0025,-0.0024,0.0022,0.0045,0.0072,0.0162,0.0174,0,0,0,-0.0072,-0.0053,-0.0039,-0.0008,0.0014,0.0036,0.0026,0.0021,0.0021,-0.0021,0.0028,0.0042,0.0057,0.0079,0.0088,0.0036,-0.0013,-0.0013,-0.0014,-0.0051,-0.0027,0.0014,0.0046,0.0067,0.0086,0.0096,0.009,0.006,0.0066,0.0079,0.0134,0.0158,0.0166,0.0111,0.0078,0.0079,0.0079,0.0079,0.0001,0.0035,0.0056,0.0102,0.0127,0.0158,0.0171,0.0156,0.0164,0.0127,0.0139,0.0126,0.0178,0.0117,0.0081,0.0081,0.0081,0.008,0.008,0.0025,0.0046,0.007,0.0133,0.0182,0.0206,0.0259,0.0244,0.0211,0.0222,0.0234,0.0234,0.0176,0.0222,0.0222,0.0222,0.0222,0.0223,0.0223,0.0042,0.007,0.0113,0.0168,0.0211,0.0272,0.0307,0.0323,0.032,0.0293,0.0293,0.0197,0.0178,0.0168,0.0227,0.0226,0.0225,0.0225,0.0225,0.0094,0.0092,0.0157,0.0199,0.0295,0.0367,0.0397,0.044,0.0435,0.0443,0.0314,0.0329,0.0321,0.0313,0.0307,0.0398,0.0398,0.0398,0.0398,0.0121,0.0126,0.0204,0.027,0.0358,0.0414,0.0491,0.0511,0.0452,0.04,0.0354,0.032,0.0315,0.0303,0.0295,0.0287,0.0371,0.0371,0.0371,0.0163,0.0177,0.0233,0.0286,0.0385,0.0464,0.0518,0.051,0.0421,0.0361,0.0274,0.0275,0.0212,0.0209,0.0177,0.0171,0.0152,0,0]}],[{"header":{"parameterUnit":"m.s-1","parameterCategory":2,"la1":30.2992,"la2":30.254,"lo1":-89.0895,"lo2":-89.0443,"dy":0.0025,"dx":0.0025,"nx":19,"ny":19,"refTime":"2026-04-05T09:00:00:Z","depth":"2","parameterNumber":2,"parameterNumberName":"U-component_of_CURRENTS"},"data":[0,0,0,0.1467,0.1465,0.1403,0.1402,0.138,0.138,0,0,0,0,0,0,0,0,0,0,0,0.1497,0.1497,0.1467,0.1465,0.1403,0.1402,0.138,0.138,0,0,0,0,0,0,0,0,0,0,0,0.1497,0.1497,0.1497,0.1465,0.1403,0.1402,0.138,0.1412,0,0,0,0,0,0,0,0,0,0,0.1465,0.1488,0.1497,0.1497,0.1465,0.1403,0.1402,0.1413,0.141,0.1425,0,0.1421,0,0.1398,0.138,0.138,0,0,0,0.1463,0.149,0.1471,0.1497,0.1464,0.1403,0.143,0.1411,0.1408,0.1422,0.1421,0.1419,0.1398,0.138,0.138,0.1397,0.1398,0,0,0.1466,0.1487,0.1473,0.1469,0.1457,0.1432,0.1428,0.1408,0.1412,0.1421,0.1418,0.1398,0.138,0.138,0.1397,0.1397,0,0,0,0.1478,0.1489,0.147,0.1471,0.1454,0.1431,0.1426,0.1413,0.1406,0.1418,0.1397,0.138,0.138,0.1397,0.1397,0.1421,0,0,0,0.148,0.1496,0.1472,0.1483,0.1454,0.1425,0.1431,0.1407,0.1404,0.1398,0.138,0.138,0.1397,0.1397,0.142,0.142,0,0,0,0.1498,0.1497,0.1492,0.1484,0.1456,0.1424,0.1415,0.1406,0.1392,0.138,0.138,0.1397,0.1397,0.1419,0.1419,0.1438,0,0,0,0.1518,0.1512,0.1493,0.1475,0.1457,0.1427,0.1415,0.1394,0.1384,0.138,0.1397,0.1397,0.1419,0.1418,0.1437,0.1386,0.1386,0,0,0.1519,0.1513,0.1499,0.1479,0.145,0.1435,0.1424,0.1406,0.1398,0.1407,0.1406,0.142,0.1419,0.1438,0.1413,0.1412,0,0,0,0.1503,0.1491,0.1479,0.1455,0.1436,0.143,0.1412,0.1418,0.1421,0.1394,0.1423,0.1421,0.1433,0.14,0.14,0.1399,0.1399,0.1399,0.1399,0.1518,0.1492,0.1466,0.1439,0.1434,0.143,0.1434,0.1441,0.1435,0.1447,0.1443,0.1475,0.1441,0.144,0.1451,0.1451,0.1451,0.1451,0.1451,0.1492,0.1459,0.1451,0.1418,0.1426,0.1428,0.1455,0.1463,0.1485,0.1473,0.1484,0.1429,0.1441,0.1453,0.1453,0.1453,0.1452,0.1452,0.1452,0.1481,0.1459,0.1444,0.1409,0.1412,0.1425,0.1447,0.1476,0.1498,0.1509,0.1473,0.1472,0.1486,0.1518,0.1518,0.1518,0.1518,0.1518,0.1518,0.1463,0.1445,0.1419,0.1395,0.1386,0.1401,0.1443,0.1464,0.1485,0.1488,0.1487,0.1497,0.1495,0.149,0.152,0.1519,0.1519,0.1519,0.1519,0.1406,0.1421,0.1377,0.1364,0.1339,0.1316,0.1385,0.1412,0.1453,0.1456,0.1478,0.1478,0.1464,0.1463,0.1457,0.1477,0.1477,0.1477,0.1476,0.1379,0.1378,0.1322,0.1292,0.1275,0.1271,0.1225,0.1225,0.1303,0.1315,0.1321,0.1285,0.1291,0.1265,0.1268,0.1257,0.1225,0.1224,0.1223,0.1333,0.1328,0.1277,0.1249,0.1229,0.1194,0.1087,0.0965,0.1033,0.1211,0.1248,0.1465,0.143,0.1432,0.1406,0.1406,0.1393,0,0]},{"header":{"parameterUnit":"m.s-1","parameterCategory":2,"la1":30.2992,"la2":30.254,"lo1":-89.0895,"lo2":-89.0443,"dy":0.0025,"dx":0.0025,"nx":19,"ny":19,"refTime":"2026-04-05T09:00:00:Z","depth":"2","parameterNumber":3,"parameterNumberName":"V-component_of_CURRENTS"},"data":[0,0,0,0.0092,0.0092,0.0085,0.0085,0.0076,0.0076,0,0,0,0,0,0,0,0,0,0,0,0.0086,0.0086,0.0092,0.0092,0.0085,0.0085,0.0076,0.0076,0,0,0,0,0,0,0,0,0,0,0,0.0086,0.0086,0.0085,0.0092,0.0085,0.0085,0.0076,0.0079,0,0,0,0,0,0,0,0,0,0,0.0085,0.0078,0.0086,0.0085,0.0092,0.0085,0.0084,0.0079,0.0079,0.0082,0,0.0081,0,0.0086,0.0076,0.0076,0,0,0,0.0083,0.0078,0.0084,0.0085,0.0092,0.0085,0.0085,0.0079,0.0078,0.0082,0.0081,0.008,0.0086,0.0076,0.0076,0.0105,0.0105,0,0,0.0083,0.0077,0.0084,0.0084,0.009,0.0086,0.0085,0.0078,0.0074,0.0081,0.008,0.0086,0.0076,0.0076,0.0105,0.0105,0,0,0,0.009,0.0077,0.0083,0.0084,0.0087,0.0086,0.0085,0.0074,0.0078,0.008,0.0086,0.0076,0.0076,0.0104,0.0105,0.0139,0,0,0,0.009,0.0083,0.0083,0.0078,0.0087,0.008,0.008,0.0078,0.0077,0.0086,0.0076,0.0076,0.0104,0.0105,0.0138,0.0162,0,0,0,0.0086,0.0082,0.0083,0.0078,0.0081,0.008,0.0083,0.0077,0.0081,0.0076,0.0076,0.0104,0.0105,0.0136,0.016,0.0183,0,0,0,0.0078,0.0083,0.0082,0.0095,0.0081,0.0104,0.0083,0.0089,0.0087,0.0076,0.0104,0.0105,0.0136,0.0158,0.0182,0.022,0.0231,0,0,0.0084,0.0083,0.0095,0.0095,0.0125,0.0104,0.0134,0.0116,0.0098,0.0104,0.0105,0.0138,0.0159,0.0183,0.0259,0.0269,0,0,0,0.0097,0.0106,0.0114,0.0132,0.0143,0.016,0.0146,0.0141,0.0137,0.0102,0.0143,0.0155,0.0169,0.0188,0.0196,0.0108,0.0108,0.0108,0.0108,0.0106,0.0124,0.0149,0.0173,0.0186,0.0198,0.0206,0.0198,0.0171,0.0174,0.0186,0.0233,0.0254,0.026,0.0184,0.0184,0.0184,0.0184,0.0184,0.0137,0.0161,0.0182,0.0211,0.0234,0.0257,0.0268,0.0254,0.0259,0.0226,0.0238,0.0227,0.0272,0.0187,0.0186,0.0186,0.0186,0.0186,0.0185,0.0153,0.0167,0.0185,0.0233,0.0275,0.0298,0.0346,0.0332,0.0301,0.0309,0.032,0.032,0.0256,0.0309,0.0309,0.0309,0.0309,0.0309,0.031,0.0162,0.0182,0.0216,0.026,0.0299,0.0355,0.0388,0.0403,0.0398,0.0372,0.0372,0.0275,0.0271,0.0263,0.0313,0.0312,0.0312,0.0312,0.0311,0.0193,0.0195,0.0247,0.0284,0.0372,0.044,0.0469,0.0507,0.0502,0.0508,0.0407,0.0403,0.0397,0.0391,0.0386,0.0465,0.0465,0.0465,0.0465,0.0213,0.0218,0.0284,0.0345,0.0428,0.0483,0.0553,0.0568,0.0542,0.0507,0.0505,0.0481,0.0474,0.047,0.0461,0.0457,0.0554,0.0554,0.0554,0.0246,0.0259,0.0308,0.0357,0.0451,0.0528,0.0577,0.0564,0.0527,0.0555,0.0493,0.0476,0.0434,0.0426,0.0411,0.0401,0.039,0,0]}],[{"header":{"parameterUnit":"m.s-1","parameterCategory":2,"la1":30.2992,"la2":30.254,"lo1":-89.0895,"lo2":-89.0443,"dy":0.0025,"dx":0.0025,"nx":19,"ny":19,"refTime":"2026-04-05T09:00:00:Z","depth":"4","parameterNumber":2,"parameterNumberName":"U-component_of_CURRENTS"},"data":[0,0,0,0.0906,0.0909,0.1044,0.1044,0.1131,0.1132,0,0,0,0,0,0,0,0,0,0,0,0.0854,0.0855,0.0905,0.0909,0.1044,0.1044,0.1131,0.1132,0,0,0,0,0,0,0,0,0,0,0,0.0854,0.0855,0.0856,0.091,0.1043,0.1044,0.1131,0.1049,0,0,0,0,0,0,0,0,0,0,0.0927,0.0898,0.0855,0.0856,0.091,0.1043,0.1044,0.1045,0.1054,0.1048,0,0.1078,0,0.1112,0.1136,0.1137,0,0,0,0.0901,0.0891,0.0928,0.0856,0.0912,0.1043,0.0981,0.1051,0.106,0.1059,0.1079,0.1084,0.1113,0.1137,0.1137,0.1215,0.1215,0,0,0.0894,0.0876,0.0922,0.0934,0.0957,0.0976,0.0985,0.1057,0.1069,0.108,0.1086,0.1115,0.1137,0.1138,0.1215,0.1215,0,0,0,0.0878,0.0871,0.0907,0.0929,0.0964,0.098,0.099,0.1065,0.1078,0.1088,0.1116,0.1138,0.1139,0.1214,0.1215,0.1241,0,0,0,0.0873,0.0862,0.0904,0.0894,0.0963,0.103,0.0997,0.1073,0.1083,0.1115,0.1138,0.1139,0.1214,0.1215,0.124,0.1239,0,0,0,0.0846,0.086,0.0878,0.0893,0.0956,0.1029,0.1047,0.1076,0.11,0.1137,0.1139,0.1214,0.1215,0.1239,0.1237,0.1255,0,0,0,0.0818,0.085,0.0878,0.0929,0.0955,0.1033,0.1047,0.1108,0.1142,0.1138,0.1214,0.1215,0.1238,0.1236,0.1253,0.1091,0,0,0,0.0838,0.0852,0.0882,0.0911,0.0983,0.1013,0.1085,0.1135,0.1149,0.1182,0.1185,0.124,0.1237,0.1254,0.114,0,0,0,0,0.0875,0.0898,0.0924,0.098,0.1035,0.1087,0.1141,0.1164,0.1216,0.1177,0.1249,0.1246,0.1256,0.1159,0.1219,0.1219,0.1219,0.1219,0.1218,0.0871,0.0912,0.0962,0.102,0.1069,0.1144,0.1184,0.1224,0.1237,0.1266,0.1275,0.1314,0.1213,0.1289,0.1289,0.129,0.129,0.129,0.129,0.0896,0.0923,0.0982,0.1046,0.1105,0.1167,0.1236,0.1262,0.1313,0.1311,0.1319,0.1202,0.1293,0.1292,0.1292,0.1291,0.1291,0.1291,0.1291,0.0878,0.0894,0.0951,0.1038,0.1112,0.1186,0.1234,0.1292,0.133,0.1347,0.1246,0.133,0.1319,0.136,0.136,0.136,0.136,0.136,0.136,0.0831,0.0884,0.0938,0.1029,0.1079,0.1151,0.1241,0.1263,0.1314,0.1251,0.1357,0.1337,0.1335,0.1324,0.1361,0.1361,0.1361,0.1361,0.1361,0.0812,0.0843,0.0903,0.0957,0.1052,0.1084,0.1184,0.1181,0.1194,0.1167,0.1198,0.1205,0.1178,0.1179,0.1161,0.1153,0.1151,0.1149,0,0.0789,0.0811,0.0878,0.0926,0.0964,0.1036,0.1005,0.1043,0.1082,0.1048,0.1212,0.1248,0.1251,0.1222,0.1221,0.12,0,0,0,0.0787,0.0803,0.083,0.0882,0.0914,0.0924,0.099,0.0961,0.1075,0.103,0.11,0.1113,0.1268,0.1366,0.1342,0.1339,0.1319,0,0]},{"header":{"parameterUnit":"m.s-1","parameterCategory":2,"la1":30.2992,"la2":30.254,"lo1":-89.0895,"lo2":-89.0443,"dy":0.0025,"dx":0.0025,"nx":19,"ny":19,"refTime":"2026-04-05T09:00:00:Z","depth":"4","parameterNumber":3,"parameterNumberName":"V-component_of_CURRENTS"},"data":[0,0,0,0.0336,0.0335,0.0292,0.0292,0.0266,0.0266,0,0,0,0,0,0,0,0,0,0,0,0.0355,0.0354,0.0336,0.0335,0.0292,0.0292,0.0266,0.0266,0,0,0,0,0,0,0,0,0,0,0,0.0355,0.0354,0.0354,0.0335,0.0292,0.0292,0.0266,0.0291,0,0,0,0,0,0,0,0,0,0,0.0329,0.0344,0.0355,0.0354,0.0334,0.0292,0.0292,0.0292,0.029,0.0293,0,0.0287,0,0.0274,0.0264,0.0264,0,0,0,0.0336,0.0346,0.0332,0.0354,0.0334,0.0293,0.0312,0.0291,0.0288,0.0289,0.0286,0.0285,0.0273,0.0264,0.0264,0.0256,0.0256,0,0,0.0338,0.0349,0.0334,0.033,0.0324,0.0313,0.0311,0.0289,0.0288,0.0286,0.0284,0.0273,0.0264,0.0264,0.0256,0.0256,0,0,0,0.0344,0.0351,0.0337,0.0332,0.032,0.0312,0.0309,0.0289,0.0284,0.0283,0.0272,0.0264,0.0264,0.0256,0.0256,0.028,0,0,0,0.0346,0.0354,0.0338,0.0345,0.0321,0.0301,0.031,0.0286,0.0283,0.0273,0.0264,0.0264,0.0256,0.0256,0.028,0.0298,0,0,0,0.0356,0.0355,0.035,0.0345,0.0325,0.03,0.0294,0.0285,0.0276,0.0264,0.0264,0.0256,0.0256,0.0279,0.0296,0.0311,0,0,0,0.0369,0.0359,0.035,0.0336,0.0326,0.0307,0.0294,0.0279,0.027,0.0264,0.0256,0.0256,0.0279,0.0295,0.031,0.0301,0,0,0,0.0362,0.0359,0.0349,0.034,0.0325,0.0313,0.0307,0.0288,0.0273,0.0265,0.0265,0.028,0.0296,0.031,0.0308,0,0,0,0,0.035,0.0345,0.0338,0.0327,0.0314,0.0318,0.0297,0.0292,0.0281,0.0267,0.0276,0.0285,0.0293,0.0285,0.0257,0.0257,0.0257,0.0257,0.0257,0.0354,0.0345,0.0337,0.0328,0.0324,0.032,0.0321,0.0312,0.0293,0.0292,0.0301,0.0325,0.0316,0.0293,0.0293,0.0293,0.0293,0.0293,0.0293,0.0344,0.0338,0.0342,0.0332,0.0343,0.0347,0.0348,0.034,0.0339,0.0319,0.0326,0.0306,0.0295,0.0295,0.0295,0.0294,0.0294,0.0294,0.0294,0.0344,0.0341,0.0341,0.0344,0.0364,0.0372,0.0401,0.0392,0.0368,0.0373,0.0359,0.0344,0.0346,0.0374,0.0374,0.0374,0.0375,0.0375,0.0375,0.0341,0.0341,0.0349,0.0357,0.0378,0.0411,0.0433,0.0438,0.0419,0.0392,0.0382,0.0352,0.035,0.035,0.0377,0.0377,0.0376,0.0376,0.0376,0.0325,0.0337,0.0349,0.0368,0.0414,0.0442,0.0468,0.0467,0.0466,0.0449,0.0398,0.0397,0.0389,0.0386,0.0387,0.0426,0.0426,0.0426,0,0.0323,0.0325,0.0353,0.0388,0.0431,0.0462,0.0477,0.0484,0.0452,0.0435,0.0461,0.0404,0.0402,0.0393,0.039,0.0392,0,0,0,0.0316,0.0329,0.0349,0.0384,0.0436,0.0462,0.0482,0.047,0.0452,0.0457,0.0426,0.0426,0.0425,0.0384,0.0368,0.0365,0.0365,0,0]}]]